Find Starlink 32012

NORAD ID: 60027 Int'l Des: 2024-111 Owner: SPXS Country: US Constellation: starlink operational
LEOCIRCULAR

当前视图

正在加载3D地球...

About Starlink 32012

Starlink 32012 (NORAD 60027) is a starlink constellation satellite (v2 mini) launched Jun 8, 2024 by SPXS of US. It operates in LEO, CIRCULAR orbit with a mass of 730.00 kg.

即将过境

Passes for default location (London). Set your location on the main map for personalized predictions.

高度历史

Loading altitude history...

两行轨道根数

1 60027U 24111M 26265.35115903 -.00001107 00000-0 -21630-4 0 9999
2 60027 53.1590 240.7021 0001304 77.7329 282.3819 15.34390345129168
Epoch: Sep 22, 2026 • Age: 14 hours

当前状态

高度 468.3 km
远地点 / 近地点 N/A
速度 7.64 km/s
星下点 52.96°N, 25.98°W
发射日期 Jun 8, 2024
运行时间 2.2 years
类型 internet

技术详情

分类 Payload
质量 730.00 kg
干质量 700.00 kg
长度 0.30 m
跨度 29.00 m
形状 ? Box + pan
制造商 SPXS
平台类型 Starlink V2M
阶段状态 In Orbit
所有者/国家 SPXS/US

Most Searched